Location: Göttingen
(51.5413°N, 9.9158°E)
Time: 03:20:28
(UTC+01:00)

N. Korean satellite - Visible Passes

Search period start: 19 January 2022 00:00
Search period end: 29 January 2022 00:00
Orbit: 446 x 492 km, 97.3° (Epoch: 18 January)

Date Brightness Start Highest point End Pass type
(mag) Time Alt. Az. Time Alt. Az. Time Alt. Az.
19 Jan 7.4 05:30:13 10° NNE 05:33:16 50° ENE 05:33:16 50° ENE visible
19 Jan 8.2 07:04:19 10° NNW 07:06:34 16° WNW 07:07:20 15° WNW visible
19 Jan 9.6 17:43:31 10° SW 17:45:44 16° W 17:48:00 10° NW visible
20 Jan 8.7 05:01:25 10° NE 05:04:11 26° E 05:04:11 26° E visible
20 Jan 7.4 06:34:31 10° N 06:37:41 29° WNW 06:38:15 27° W visible
21 Jan 9.7 04:33:13 10° NE 04:35:06 14° E 04:35:06 14° E visible
21 Jan 6.5 06:05:07 10° N 06:08:41 58° WNW 06:09:09 52° WSW visible
22 Jan 6.9 05:35:56 10° NNE 05:39:34 66° ESE 05:40:04 57° SSE visible
22 Jan 8.3 07:10:17 10° NNW 07:12:15 14° WNW 07:14:07 10° W visible
22 Jan 9.8 17:49:34 10° WSW 17:51:31 14° W 17:53:30 10° NW visible
23 Jan 8.4 05:07:01 10° NNE 05:10:18 31° E 05:10:58 29° ESE visible
23 Jan 7.6 06:40:19 10° N 06:43:21 25° WNW 06:45:02 18° WSW visible
24 Jan 9.5 04:38:35 10° NE 04:40:53 16° E 04:41:51 15° ESE visible
24 Jan 6.7 06:10:47 10° N 06:14:19 50° WNW 06:15:56 28° SW visible
25 Jan 6.6 05:41:30 10° NNE 05:45:09 77° E 05:46:49 30° S visible
25 Jan 8.4 07:16:08 10° NNW 07:17:46 13° WNW 07:19:24 10° W visible
25 Jan 9.9 17:55:31 10° WSW 17:57:07 13° W 17:58:43 10° WNW visible
26 Jan 8.1 05:12:28 10° NNE 05:15:52 35° E 05:17:42 21° SSE visible
26 Jan 7.7 06:45:56 10° NNW 06:48:50 23° WNW 06:51:43 10° WSW visible
27 Jan 9.4 04:43:51 10° NE 04:46:25 18° E 04:48:36 12° SE visible
27 Jan 6.9 06:16:17 10° N 06:19:46 43° WNW 06:22:40 14° SW visible
28 Jan 6.5 05:46:54 10° NNE 05:50:35 88° ESE 05:53:35 15° SSW visible
28 Jan 8.6 07:21:56 10° NW 07:23:07 11° WNW 07:24:19 10° WNW visible
28 Jan 10.1 18:01:27 10° WSW 18:02:33 11° W 18:03:39 10° WNW visible
